SCP
0 0 0 0 0 0 0 0 0 0 0 0 0 0 0 0 0 0 0 0 0 0 0 0 0 0 0 0 0 0 0 -0
0 0 0 0 0 0 0 0 0 0 0 0 0 0 0 0 0 0 0 0 0 0 0 0 0 0 0 0 0 0 0 0
0 0 0 0 0 0 0 0 0 0 0 0 0 0 0 0 0 0 0 0 0 0 0 0 0 0 0 0 0 0 0 0
0 0 0 0 0 0 0 0 0 0 0 0 0 0 0 0 0 0 0 0 0 0 0 0 1 1 1 0 0 0 0 0
0 0 0 0 0 0 0 0 0 0 0 0 0 0 0 0 0 0 0 0 0 0 0 1 1 1 1 1 1 1 0 0
0 0 0 0 0 0 0 0 0 0 0 0 0 0 0 0 0 0 0 0 0 0 0 0 0 0 1 0 0 1 1 0
0 0 0 0 0 0 0 0 0 0 0 0 0 0 0 0 0 0 0 0 0 0 0 0 0 0 0 0 1 0 0 0
0 0 0 0 0 0 0 0 0 0 0 0 0 0 0 0 0 0 0 0 0 0 0 0 0 0 0 0 1 1 1 -0
0 0 0 0 0 0 0 0 0 0 0 0 0 0 0 0 0 0 0 0 0 0 0 0 0 0 0 0 0 1 0 0
0 0 0 0 0 0 0 0 0 0 0 0 0 0 0 0 0 0 0 0 0 0 0 0 0 0 0 0 0 0 0 1
0 0 0 0 0 0 0 0 0 0 0 0 0 0 0 0 0 0 0 0 0 0 0 0 0 0 0 0 0 0 0 1
0 0 0 0 0 0 0 0 0 0 0 0 0 0 0 0 0 0 0 0 0 0 0 0 0 0 0 0 0 0 0 0
0 0 0 0 0 0 0 0 0 0 0 0 0 0 0 0 0 0 0 0 -0 0 0 0 0 0 -0 -0 0 0 0 0
0 0 0 0 0 0 0 0 0 0 0 0 0 0 0 0 0 0 0 0 0 0 0 0 0 0 -0 -0 -0 -0 0 0
0 0 0 0 0 0 0 0 0 0 0 0 0 0 0 0 0 0 0 0 0 0 0 0 0 0 0 0 -0 0 -0 0
0 0 0 0 0 0 0 0 0 0 0 0 0 0 0 0 0 0 0 0 0 0 0 0 0 0 0 0 0 0 0 -0
0 0 0 0 0 0 0 0 0 0 0 0 0 0 0 0 0 0 0 0 0 0 0 0 0 -0 0 0 0 0 0 0
0 0 0 0 0 0 0 0 0 0 0 0 0 0 0 0 0 0 0 0 0 0 0 0 0 0 0 -0 0 0 0 0
0 0 0 0 0 0 0 0 0 0 0 0 0 0 0 0 0 0 0 0 0 0 0 0 0 0 0 0 0 0 0 0
0 0 0 0 0 0 0 0 0 0 0 0 0 0 0 0 0 0 0 0 0 0 0 0 0 0 0 0 0 0 0 0
Wind_Speed_500mb
8 6 6 8 12 14 15 14 13 14 17 18 19 20 24 30 32 33 33 32 34 34 34 35 33 32 31 30 28 27 27 23
9 7 8 8 11 10 12 12 14 15 17 18 17 23 24 26 31 36 36 36 38 38 38 38 39 38 37 37 37 35 34 29
6 4 5 6 8 9 12 13 16 17 17 16 18 19 20 27 31 33 31 38 42 41 42 44 44 45 45 43 43 45 41 36
5 3 4 5 8 9 13 19 20 22 24 21 22 21 24 23 27 26 33 36 41 45 47 47 48 52 54 50 48 48 49 45
5 4 7 11 15 17 19 22 23 23 26 29 30 27 29 31 31 33 30 30 35 43 43 46 51 49 54 48 49 53 51 44
8 10 12 14 17 18 19 21 22 23 27 31 31 33 35 35 35 35 32 29 35 36 40 47 50 53 54 54 56 57 53 46
6 9 11 14 16 18 20 20 22 23 26 32 36 36 36 39 38 36 32 29 34 39 44 46 55 56 56 61 64 66 67 53
3 7 9 10 11 13 17 21 22 24 25 31 31 33 37 37 36 35 30 40 44 46 47 46 46 48 63 65 63 71 63 68
5 8 9 11 12 13 15 18 19 22 25 28 35 37 37 37 35 31 39 45 47 47 47 45 45 39 51 65 67 65 70 74
9 9 11 11 11 14 15 17 18 20 22 27 32 33 35 37 36 38 44 42 43 45 48 52 51 53 56 65 67 72 61 67
9 8 8 8 10 11 13 15 17 18 22 26 30 34 38 38 38 41 42 44 45 49 51 53 57 54 58 68 72 78 75 63
7 9 10 8 11 10 8 10 10 19 22 29 32 33 35 38 39 43 45 44 45 48 52 52 53 57 63 66 71 78 79 76
6 11 12 7 6 9 9 10 12 14 18 24 29 32 37 36 39 43 48 51 52 52 54 57 58 59 67 71 77 75 75 85
4 6 11 9 7 11 10 12 14 13 19 21 28 31 33 33 40 43 45 49 51 53 57 59 56 56 55 65 43 72 30 42
5 7 10 11 6 9 7 6 4 12 16 20 26 29 30 35 41 44 44 45 50 54 54 55 62 56 43 29 27 21 77 53
5 7 6 10 10 10 11 11 12 17 20 23 23 24 29 38 43 44 45 48 51 52 52 52 51 56 53 34 36 54 52 64
3 7 6 10 11 14 15 15 15 16 21 22 25 25 27 35 45 46 46 48 50 53 54 52 50 48 49 53 53 46 50 63
3 6 9 10 14 18 19 21 21 21 24 24 28 29 33 37 45 46 45 46 49 51 52 46 48 43 50 52 47 45 52 58
6 7 5 10 14 15 17 18 20 21 26 27 30 33 36 43 45 47 46 45 46 48 49 47 47 50 55 49 42 43 38 50
4 5 3 8 10 13 15 18 17 18 25 27 28 29 32 41 42 42 40 45 45 45 44 41 46 48 49 49 51 43 43 52
Wind_Direction_500mb
70 43 17 16 3 359 4 2 348 332 318 308 299 290 284 281 279 279 280 279 280 281 280 281 281 280 281 278 273 270 265 251
61 65 64 59 41 22 17 6 352 340 330 325 309 286 283 284 287 280 274 270 274 277 277 275 276 277 276 276 275 267 263 260
32 33 56 52 30 16 359 346 339 332 328 328 322 318 299 291 283 283 284 278 280 274 276 275 274 274 273 273 273 270 265 260
339 357 22 8 13 351 336 322 327 323 318 321 318 316 306 304 301 300 284 277 279 279 272 269 272 273 275 274 270 270 267 260
346 20 2 350 333 330 322 315 319 321 316 313 316 312 302 299 295 289 287 287 275 274 280 279 271 271 273 274 277 271 273 269
9 1 343 337 329 326 321 324 326 327 325 318 321 323 314 315 309 309 306 295 288 295 278 269 271 268 262 259 247 260 261 268
0 355 344 337 331 331 329 340 340 341 332 330 336 333 326 324 323 318 317 308 283 271 271 275 266 263 262 260 256 253 246 252
7 338 337 339 335 334 336 347 350 350 346 341 349 339 338 335 329 327 318 293 292 291 289 284 284 284 267 263 263 263 262 241
360 336 349 339 348 357 355 5 4 2 358 347 354 348 351 347 341 329 312 314 309 303 296 287 279 272 270 269 267 268 262 252
0 359 350 348 356 358 0 7 11 6 353 350 356 353 355 354 349 342 338 334 329 320 310 302 292 280 273 265 260 256 263 259
347 326 327 338 355 8 4 6 355 355 351 348 353 352 351 356 356 349 350 347 343 336 331 326 318 304 291 280 272 262 255 264
343 331 338 358 2 11 353 6 354 2 355 344 348 349 348 354 352 350 353 354 350 346 342 336 329 320 310 298 286 278 262 252
348 346 340 351 337 350 340 355 10 353 347 350 346 347 347 351 351 353 352 352 352 348 344 340 337 331 322 310 298 289 277 254
16 352 328 327 354 330 352 13 23 344 331 348 345 349 351 352 347 352 352 350 352 350 345 340 334 336 336 330 329 312 295 262
27 30 354 335 41 320 28 54 46 309 350 332 3 347 350 338 344 349 351 351 351 350 349 343 334 334 334 326 327 301 316 279
71 56 9 342 348 358 19 18 1 352 341 349 337 349 349 335 341 348 349 350 349 350 350 346 338 326 325 313 281 286 300 304
55 60 344 339 0 19 16 11 2 1 338 351 339 347 339 334 341 347 349 348 348 348 349 349 340 328 320 310 302 294 293 288
77 81 335 354 22 23 10 7 358 2 349 347 352 347 343 337 341 346 347 347 346 348 348 348 340 328 315 308 301 301 295 288
65 67 350 351 41 27 7 6 359 359 348 349 351 350 346 342 343 344 347 344 345 348 349 351 342 328 325 318 303 291 292 295
132 101 319 344 66 32 7 4 4 352 348 350 340 342 352 337 339 342 342 342 347 349 355 352 337 335 329 326 326 315 300 280
Wind_Speed_850mb
8 6 6 8 12 14 15 14 13 14 17 18 19 20 24 30 32 33 33 32 34 34 34 35 33 32 31 30 28 27 27 23
9 7 8 8 11 10 12 12 14 15 17 18 17 23 24 26 31 36 36 36 38 38 38 38 39 38 37 37 37 35 34 29
6 4 5 6 8 9 12 13 16 17 17 16 18 19 20 27 31 33 31 38 42 41 42 44 44 45 45 43 43 45 41 36
5 3 4 5 8 9 13 19 20 22 24 21 22 21 24 23 27 26 33 36 41 45 47 47 48 52 54 50 48 48 49 45
5 4 7 11 15 17 19 22 23 23 26 29 30 27 29 31 31 33 30 30 35 43 43 46 51 49 54 48 49 53 51 44
8 10 12 14 17 18 19 21 22 23 27 31 31 33 35 35 35 35 32 29 35 36 40 47 50 53 54 54 56 57 53 46
6 9 11 14 16 18 20 20 22 23 26 32 36 36 36 39 38 36 32 29 34 39 44 46 55 56 56 61 64 66 67 53
3 7 9 10 11 13 17 21 22 24 25 31 31 33 37 37 36 35 30 40 44 46 47 46 46 48 63 65 63 71 63 68
5 8 9 11 12 13 15 18 19 22 25 28 35 37 37 37 35 31 39 45 47 47 47 45 45 39 51 65 67 65 70 74
9 9 11 11 11 14 15 17 18 20 22 27 32 33 35 37 36 38 44 42 43 45 48 52 51 53 56 65 67 72 61 67
9 8 8 8 10 11 13 15 17 18 22 26 30 34 38 38 38 41 42 44 45 49 51 53 57 54 58 68 72 78 75 63
7 9 10 8 11 10 8 10 10 19 22 29 32 33 35 38 39 43 45 44 45 48 52 52 53 57 63 66 71 78 79 76
6 11 12 7 6 9 9 10 12 14 18 24 29 32 37 36 39 43 48 51 52 52 54 57 58 59 67 71 77 75 75 85
4 6 11 9 7 11 10 12 14 13 19 21 28 31 33 33 40 43 45 49 51 53 57 59 56 56 55 65 43 72 30 42
5 7 10 11 6 9 7 6 4 12 16 20 26 29 30 35 41 44 44 45 50 54 54 55 62 56 43 29 27 21 77 53
5 7 6 10 10 10 11 11 12 17 20 23 23 24 29 38 43 44 45 48 51 52 52 52 51 56 53 34 36 54 52 64
3 7 6 10 11 14 15 15 15 16 21 22 25 25 27 35 45 46 46 48 50 53 54 52 50 48 49 53 53 46 50 63
3 6 9 10 14 18 19 21 21 21 24 24 28 29 33 37 45 46 45 46 49 51 52 46 48 43 50 52 47 45 52 58
6 7 5 10 14 15 17 18 20 21 26 27 30 33 36 43 45 47 46 45 46 48 49 47 47 50 55 49 42 43 38 50
4 5 3 8 10 13 15 18 17 18 25 27 28 29 32 41 42 42 40 45 45 45 44 41 46 48 49 49 51 43 43 52
Wind_Direction_850mb
70 43 17 16 3 359 4 2 348 332 318 308 299 290 284 281 279 279 280 279 280 281 280 281 281 280 281 278 273 270 265 251
61 65 64 59 41 22 17 6 352 340 330 325 309 286 283 284 287 280 274 270 274 277 277 275 276 277 276 276 275 267 263 260
32 33 56 52 30 16 359 346 339 332 328 328 322 318 299 291 283 283 284 278 280 274 276 275 274 274 273 273 273 270 265 260
339 357 22 8 13 351 336 322 327 323 318 321 318 316 306 304 301 300 284 277 279 279 272 269 272 273 275 274 270 270 267 260
346 20 2 350 333 330 322 315 319 321 316 313 316 312 302 299 295 289 287 287 275 274 280 279 271 271 273 274 277 271 273 269
9 1 343 337 329 326 321 324 326 327 325 318 321 323 314 315 309 309 306 295 288 295 278 269 271 268 262 259 247 260 261 268
0 355 344 337 331 331 329 340 340 341 332 330 336 333 326 324 323 318 317 308 283 271 271 275 266 263 262 260 256 253 246 252
7 338 337 339 335 334 336 347 350 350 346 341 349 339 338 335 329 327 318 293 292 291 289 284 284 284 267 263 263 263 262 241
360 336 349 339 348 357 355 5 4 2 358 347 354 348 351 347 341 329 312 314 309 303 296 287 279 272 270 269 267 268 262 252
0 359 350 348 356 358 0 7 11 6 353 350 356 353 355 354 349 342 338 334 329 320 310 302 292 280 273 265 260 256 263 259
347 326 327 338 355 8 4 6 355 355 351 348 353 352 351 356 356 349 350 347 343 336 331 326 318 304 291 280 272 262 255 264
343 331 338 358 2 11 353 6 354 2 355 344 348 349 348 354 352 350 353 354 350 346 342 336 329 320 310 298 286 278 262 252
348 346 340 351 337 350 340 355 10 353 347 350 346 347 347 351 351 353 352 352 352 348 344 340 337 331 322 310 298 289 277 254
16 352 328 327 354 330 352 13 23 344 331 348 345 349 351 352 347 352 352 350 352 350 345 340 334 336 336 330 329 312 295 262
27 30 354 335 41 320 28 54 46 309 350 332 3 347 350 338 344 349 351 351 351 350 349 343 334 334 334 326 327 301 316 279
71 56 9 342 348 358 19 18 1 352 341 349 337 349 349 335 341 348 349 350 349 350 350 346 338 326 325 313 281 286 300 304
55 60 344 339 0 19 16 11 2 1 338 351 339 347 339 334 341 347 349 348 348 348 349 349 340 328 320 310 302 294 293 288
77 81 335 354 22 23 10 7 358 2 349 347 352 347 343 337 341 346 347 347 346 348 348 348 340 328 315 308 301 301 295 288
65 67 350 351 41 27 7 6 359 359 348 349 351 350 346 342 343 344 347 344 345 348 349 351 342 328 325 318 303 291 292 295
132 101 319 344 66 32 7 4 4 352 348 350 340 342 352 337 339 342 342 342 347 349 355 352 337 335 329 326 326 315 300 280